Weather Roundup
Issued by NWS Springfield, MO

Home | Current Version | Previous Version | Text Only | Print | Product List | Glossary On
Versions: 1 2 3 4 5 6 7 8 9 10 11 12 13 14 15 16 17 18 19 20 21 22 23 24 25 26 27 28 29 30 31 32 33 34 35 36 37 38 39 40 41 42 43 44 45 46 47 48 49 50
000
NZUS99 KSGF 191257
HRRSGF

HOURLY WEATHER
NATIONAL WEATHER SERVICE SPRINGFIELD MO
700 AM CST SUN NOV 19 2017

......SGF CWA......

CITY           SKY/WX    TMP DP  RH WIND       PRES   REMARKS
SPRINGFIELD    CLEAR     31  27  85 NW5       30.24R WCI  26
JOPLIN         CLEAR     30  28  92 CALM      30.30R
WEST PLAINS    CLEAR     32  19  58 NW7       30.20R WCI  26
ROLLA          CLEAR     29  21  72 NW13G20   30.19R WCI  19

......SURROUNDING SGF CWA......

CITY           SKY/WX    TMP DP  RH WIND       PRES   REMARKS
CHANUTE        CLEAR     28  24  85 CALM      30.30R
PARSONS        CLEAR     26  25  96 CALM      30.32R
COFFEYVILLE    CLEAR     29  26  89 CALM      30.31R
EMPORIA        CLEAR     29  23  78 W5        30.28S WCI  24
HARRISON AR    CLEAR     33  27  78 NW6       30.25R WCI  28

......KANSAS AND MISSOURI......

CITY           SKY/WX    TMP DP  RH WIND       PRES   REMARKS
KANSAS CTY INT CLEAR     27  22  81 W6        30.24F WCI  20
SEDALIA        CLEAR     31  23  72 NW10      30.26R WCI  22
ST JOSEPH      CLEAR     24  20  84 SW3       30.25S
ST LOUIS       PTCLDY    31  22  69 W14G20    30.16R WCI  21
WICHITA        CLEAR     26  23  88 CALM      30.28S
TOPEKA         CLEAR     27  25  92 CALM      30.27F
OLATHE         CLEAR     28  23  81 CALM      30.26R

......TENNESSEE......

CITY           SKY/WX    TMP DP  RH WIND       PRES   REMARKS
MEMPHIS        NOT AVBL
NASHVILLE      MOCLDY    42  31  64 NW10      30.09R

......ARKANSAS.......

CITY           SKY/WX    TMP DP  RH WIND       PRES   REMARKS
FAYETTEVILLE   CLEAR     26  26 100 CALM      30.28R
FT SMITH       CLEAR     37  32  82 SW5       30.31R WCI  33
LITTLE ROCK    CLEAR     40  34  79 NW8       30.28R WCI  34

......OKLAHOMA.......

CITY           SKY/WX    TMP DP  RH WIND       PRES   REMARKS
TULSA          CLEAR     36  27  69 W3        30.32S
PONCA CITY     CLEAR     27  23  85 SW3       30.31S
MCALESTER      MOCLDY    30  28  92 CALM      30.32S
OKLAHOMA CITY  CLEAR     34  24  67 W3        30.32S

......IOWA............

CITY           SKY/WX    TMP DP  RH WIND       PRES   REMARKS
DES MOINES     NOT AVBL
QUAD CITIES    CLEAR     24  14  65 NW16      30.10R WCI  11

......ILLINOIS........

CITY           SKY/WX    TMP DP  RH WIND       PRES   REMARKS
QUINCY         NOT AVBL
CHICAGO        MOCLDY    30  19  63 NW18G25   29.98R WCI  18




USA.gov is the U.S. government's official web portal to all federal, state and local government web resources and services.